Location: Taaricht
(32.5378°N, 5.4251°W)
Time: 20:05:52
(UTC+00:00)

Cosmos 1943 - Pass Details

Date: 09 April 2020
Orbit: 832 x 851 km, 71.0° (Epoch: 02 June)

Event Time Altitude Azimuth Distance (km) Brightness Sun altitude
Rises 19:03:11 0° 208° (SSW) 3,373 6.5 -4.1°
Reaches altitude 10° 19:05:38 10° 212° (SSW) 2,445 5.9 -4.6°
Maximum altitude 19:11:11 62° 292° (WNW) 947 3.9 -5.7°
Drops below altitude 10° 19:16:47 10° 13° (NNE) 2,470 5.7 -6.8°
Sets 19:19:17 0° 17° (NNE) 3,411 6.3 -7.4°
